sat.trackr.live / text

‹ back to catalog

STARLINK-2507

NORAD 48316 · 2021-036AS

PAYLOAD ACTIVE UNKNOWN

§ Identity

Operator
Country
US
Launch date
2021-04-29
Launch site
AFETR
Launch vehicle
Mass (kg)
RCS (m²)

Purposes: comms

External: N2YO · Heavens-Above · Gunter

§ Orbital elements

Epoch: 2026-09-20T00:41:23.705376Z

Period
94.01 min
Inclination
53.1572°
Eccentricity
0.0001805
Mean motion
15.31703759 rev/d
Perigee alt
469.5 km
Apogee alt
472.0 km
Semi-major
6,848.9 km
B*
1.3509e-4
RAAN
274.5003°
Arg perigee
76.8109°
Mean anomaly
283.3094°
Rev number
29,783

§ Raw data

STARLINK-25071 48316U 21036AS  26263.02874659  .00003829  00000+0  13509-3 0  99962 48316  53.1572 274.5003 0001805  76.8109 283.3094 15.31703759297832

JSON: /api/v1/satellites/48316 · /tle

For live sub-satellite position, see the globe view (requires WebGL).

§ Visibility from observer

Set your observer location to see the next 7 days of passes ≥ 10°. The values pass through the URL so the page stays shareable.

No JS? Fill the form by hand. The geolocation button needs JavaScript.